Location: Invercargill
(46.4000°S, 168.3500°E)
Time: 12:54:50
(UTC+12:00)

Tiros 1 despin weight - Visible Passes

Search period start: 21 July 2019 00:00
Search period end: 31 July 2019 00:00
Orbit: 594 x 642 km, 48.2° (Epoch: 20 July)

Date Brightness Start Highest point End Pass type
(mag) Time Alt. Az. Time Alt. Az. Time Alt. Az.
21 Jul ? 05:28:17 41° ENE 05:28:17 41° ENE 05:31:19 10° ENE visible
21 Jul ? 07:05:22 17° W 07:07:57 28° NW 07:11:50 10° NNE visible
22 Jul ? 05:44:20 45° NNE 05:44:20 45° NNE 05:47:49 10° NE visible
22 Jul ? 07:21:27 10° W 07:24:14 16° NW 07:27:02 10° N visible
23 Jul ? 06:00:27 34° NNW 06:00:27 34° NNW 06:03:59 10° NNE visible
24 Jul ? 04:39:33 10° ENE 04:39:33 10° ENE 04:39:37 10° ENE visible
24 Jul ? 06:16:38 22° NNW 06:16:38 22° NNW 06:19:40 10° N visible
25 Jul ? 04:55:48 11° NE 04:55:48 11° NE 04:55:59 10° NE visible
25 Jul ? 06:32:53 12° NW 06:32:53 12° NW 06:34:12 10° NNW visible
